Wind_Speed
29 27 23 24 24 22 21 20 19 18 17 16 15 14 14 13 12 12 14 16 19 21 21 21 20 18 17 15 15 15 14 13 12 13 14 14 14 14 14 14 15 16 15 15 14 14 14 14 15 15 15 15 15 15 15 14 13 14 16 17 19 19 18 17 17 17 17 17 17 17 16 16 16 18 18 18 16 16 16 16 17 18 18 18 16
32 28 24 24 24 22 21 20 20 18 17 16 15 14 14 13 13 13 14 16 18 19 20 20 19 17 16 15 14 13 13 13 12 13 14 14 14 14 14 14 15 16 15 15 14 14 14 14 14 14 14 14 14 14 14 14 14 15 16 17 18 18 17 16 16 15 16 16 16 16 16 15 15 16 18 17 16 16 15 16 17 18 18 19 17
32 28 24 24 24 22 22 21 20 18 17 16 15 14 14 14 13 13 13 15 17 18 18 18 17 15 14 14 13 13 13 13 13 13 14 14 14 14 14 15 15 15 14 14 13 13 13 14 13 13 13 14 14 14 14 14 14 15 15 16 17 17 16 15 15 15 15 16 16 16 16 15 15 15 16 16 15 15 15 16 17 18 18 18 18
32 29 25 25 24 22 22 21 20 18 17 17 16 15 14 14 13 13 13 14 15 16 17 16 15 14 13 13 12 12 12 12 12 12 13 13 13 13 14 14 14 14 13 12 12 12 12 13 13 13 12 12 14 14 14 14 15 15 15 15 16 16 15 14 14 15 15 15 15 16 16 15 15 15 15 15 15 15 15 15 16 17 18 18 19
32 29 25 25 24 23 22 21 20 18 18 17 16 15 14 14 13 13 13 14 15 15 15 15 14 14 13 13 12 12 12 12 11 12 12 12 13 12 13 14 13 13 13 11 11 11 12 13 13 12 12 12 13 14 14 15 16 15 14 14 14 14 14 13 13 14 15 15 15 16 15 14 14 14 14 13 14 15 15 15 15 16 18 18 20
30 29 26 25 24 23 22 21 20 19 18 17 16 15 15 15 14 13 12 13 14 14 15 14 14 14 14 14 14 13 13 13 13 12 12 12 12 12 12 13 13 13 12 10 9 10 12 13 14 13 12 12 12 14 15 15 16 15 14 13 13 13 13 13 12 13 14 15 15 15 15 13 14 14 13 13 13 14 14 14 15 16 17 18 19
29 29 27 25 25 23 22 21 21 20 19 18 17 16 15 15 14 13 13 13 13 13 14 14 14 14 14 14 13 12 12 12 12 12 11 12 12 10 10 13 14 13 12 11 8 8 11 13 14 14 13 12 13 14 16 16 15 15 14 13 12 12 12 12 11 12 13 14 14 15 14 13 13 13 13 12 12 12 14 14 15 16 16 17 19
28 27 26 25 24 23 21 21 21 21 20 19 18 17 16 16 15 14 13 13 13 13 13 13 14 14 14 13 12 12 12 12 12 11 11 11 10 8 8 12 15 15 13 13 9 7 9 12 13 15 14 13 13 15 16 16 15 15 14 12 12 11 11 10 10 11 11 13 14 14 13 13 12 12 11 12 12 11 12 13 14 15 16 17 18
27 26 25 24 23 21 21 21 21 21 21 20 19 18 17 17 16 15 14 14 14 13 13 12 12 12 13 13 13 13 13 13 13 12 11 10 9 7 7 10 14 16 14 13 12 8 9 11 12 13 14 13 14 16 17 16 15 15 14 12 11 11 10 10 9 10 11 12 13 13 13 12 11 11 11 10 11 11 11 12 13 15 15 16 17
26 25 24 22 21 20 20 20 21 21 21 20 19 18 18 18 17 16 15 14 14 13 12 11 10 11 13 14 13 14 14 13 12 12 10 10 8 8 9 10 12 14 14 13 13 10 9 10 12 13 13 13 14 16 17 18 17 15 14 12 11 11 10 9 8 9 10 11 11 12 12 11 11 11 11 10 10 10 11 11 12 13 14 16 16
25 24 23 20 20 19 19 20 21 22 21 21 20 19 18 18 17 16 15 14 13 13 12 11 11 11 12 13 13 14 14 12 12 11 10 10 9 10 11 11 11 12 12 11 11 10 8 8 12 13 12 13 14 15 15 17 17 16 14 13 12 11 11 10 9 8 9 10 10 10 10 10 10 10 11 10 9 9 10 10 11 12 13 14 15
24 23 21 19 19 19 20 22 22 22 21 20 20 19 18 18 17 16 15 14 13 13 12 11 12 11 12 13 14 14 13 12 12 11 11 10 10 11 12 12 11 10 9 9 8 8 8 8 10 12 12 12 13 14 14 14 15 16 15 14 13 12 12 10 9 8 8 9 9 9 9 10 10 9 10 9 9 8 9 9 11 11 11 13 14
23 21 19 18 18 19 21 23 23 22 21 20 20 19 19 19 17 17 15 14 13 12 12 12 12 12 12 13 13 12 11 11 11 12 11 11 10 11 12 11 10 8 8 7 7 7 8 8 9 10 11 11 12 13 13 13 13 15 15 14 14 13 12 11 10 9 7 8 8 8 8 9 9 8 8 8 8 7 8 9 9 10 10 12 13
23 20 18 19 18 20 22 24 25 23 22 22 21 21 20 19 18 17 16 14 13 12 11 12 12 13 13 12 12 11 11 11 12 12 11 10 10 10 11 11 10 8 7 7 6 7 7 7 8 9 10 11 12 12 13 12 11 14 15 14 13 13 12 10 10 9 8 7 8 7 8 8 8 7 8 8 7 7 7 8 8 8 9 10 12
23 22 20 20 19 21 22 23 24 23 22 22 22 21 20 19 18 16 15 14 13 12 11 12 13 14 15 13 11 11 11 12 11 11 10 9 9 10 10 10 9 8 7 7 6 6 7 7 7 9 10 11 11 12 12 11 11 11 14 13 12 12 11 10 9 9 8 7 7 7 7 7 7 6 7 7 7 6 5 6 7 7 8 9 10
22 21 21 20 19 20 19 19 20 20 21 20 21 21 20 19 17 15 15 15 12 11 11 13 13 13 14 13 12 12 12 11 10 10 9 9 9 9 9 9 9 8 7 7 6 6 6 6 6 7 9 11 11 12 11 11 10 9 12 13 12 12 11 10 8 9 8 8 7 6 6 6 5 6 6 6 6 6 5 5 5 6 7 8 9
21 20 20 19 19 19 17 16 16 17 19 18 19 19 18 16 14 14 14 13 11 10 11 12 13 13 13 12 12 12 11 10 9 9 9 8 8 8 8 8 8 8 8 7 7 6 6 6 6 7 9 11 11 11 11 10 9 8 9 11 12 12 11 10 8 8 9 8 7 6 5 5 4 4 5 5 5 6 5 4 4 5 6 7 7
21 19 18 18 19 17 14 14 15 17 19 18 18 18 15 14 15 14 13 11 10 10 11 13 13 13 12 12 12 12 10 9 8 8 8 8 8 7 8 8 8 8 8 8 8 7 6 6 7 8 9 11 11 11 11 10 9 7 7 9 10 11 11 10 9 9 9 8 7 6 5 4 3 4 4 4 4 5 5 4 3 4 5 5 6
20 19 18 18 16 14 15 15 16 17 19 19 18 17 14 15 13 12 11 10 10 10 11 13 14 13 12 12 12 11 9 8 8 8 8 8 7 7 7 7 8 8 8 8 8 8 7 6 7 8 9 11 11 11 11 10 10 8 6 8 10 11 11 10 9 9 8 8 7 6 5 3 2 3 3 2 3 3 4 5 3 2 3 4 4
20 19 19 17 15 15 18 17 17 18 18 18 17 16 14 15 14 12 11 10 10 11 13 14 13 12 12 12 11 10 9 8 7 7 7 7 7 7 7 7 8 8 9 9 9 8 7 6 7 8 9 10 11 11 11 11 10 9 7 7 9 10 10 10 10 9 8 8 7 6 4 3 2 2 2 2 2 2 2 4 4 2 2 3 3
21 21 19 17 17 18 20 18 18 17 17 17 16 16 15 15 15 14 12 12 13 14 15 14 13 12 12 11 10 9 8 7 6 6 6 6 6 6 7 8 8 8 8 8 8 8 7 6 6 6 8 9 10 10 10 11 11 10 8 6 7 9 9 9 9 8 8 7 7 6 4 3 2 1 1 2 1 1 1 2 3 2 1 1 2
22 23 21 19 21 21 19 18 18 17 17 16 16 16 16 15 14 14 14 15 15 15 15 14 12 11 10 10 9 8 7 6 6 5 5 5 6 6 7 7 7 7 7 8 7 7 6 5 5 6 7 8 9 10 10 10 11 11 9 7 6 7 8 8 8 8 8 7 7 5 4 4 3 1 1 1 1 0 1 1 1 1 1 0 1
24 23 22 22 22 21 19 18 18 18 18 17 18 17 16 17 16 16 16 17 17 15 14 13 11 10 9 9 8 8 7 6 5 5 5 4 5 6 6 6 6 6 6 7 6 6 5 5 5 5 6 7 8 9 10 10 11 11 11 8 6 6 7 7 8 7 7 7 6 5 4 4 3 2 1 1 0 1 1 1 1 1 1 1 1
25 24 24 23 23 22 20 18 17 18 19 18 18 17 16 17 17 17 17 17 17 15 13 11 11 10 9 9 8 7 6 5 5 4 4 4 5 5 5 5 6 5 5 6 6 5 5 5 5 4 5 6 7 8 9 10 11 12 12 10 7 6 6 7 7 7 6 5 4 4 4 4 4 4 3 2 2 2 2 2 1 1 1 1 2
25 25 25 24 25 23 19 17 18 19 18 17 17 16 14 15 15 16 16 16 15 14 13 11 10 9 8 8 7 6 5 4 3 3 3 3 3 3 5 5 5 5 5 6 6 5 5 5 4 3 3 4 6 8 9 9 10 12 13 12 9 7 6 6 6 6 6 4 3 3 3 3 4 5 4 3 3 3 2 3 3 2 2 2 2
25 25 25 25 25 23 19 17 18 18 17 16 15 15 13 14 15 15 15 15 14 13 12 10 9 8 7 6 6 5 4 4 3 3 3 3 3 3 4 4 4 5 5 5 5 6 5 4 4 4 3 4 5 8 10 10 10 11 12 13 11 8 7 6 6 6 6 5 4 3 3 2 4 5 4 4 4 4 3 3 3 3 2 2 2
24 24 24 23 22 21 19 19 19 17 17 16 16 14 13 14 14 14 14 12 11 10 9 7 7 7 6 6 5 5 4 4 4 4 4 3 3 3 3 3 5 5 6 6 6 6 6 5 5 4 4 4 5 7 10 10 9 10 11 12 12 10 8 7 6 5 6 6 5 3 2 2 3 3 4 4 4 4 3 3 3 3 3 3 2
20 20 22 21 20 20 21 21 20 18 17 18 16 14 14 15 14 13 12 11 8 8 7 6 6 6 5 5 5 5 4 5 5 5 5 4 4 4 4 4 5 6 7 8 7 7 7 5 5 5 4 3 4 6 9 9 8 8 9 10 11 11 9 7 6 6 5 5 4 3 2 1 1 2 3 3 3 3 2 2 2 3 3 3 3
18 19 19 20 20 19 21 21 20 17 17 18 16 15 15 16 15 13 11 10 9 8 7 6 5 4 5 5 5 5 6 6 6 6 5 4 4 5 4 5 6 6 8 8 7 7 7 6 5 5 4 4 3 5 7 8 7 6 7 9 10 10 10 8 7 6 6 5 5 5 4 2 1 1 2 2 3 2 1 1 1 2 2 3 4
21 20 18 20 21 21 21 22 20 17 16 17 16 15 14 14 13 12 11 10 9 8 6 5 5 5 6 6 6 7 8 7 6 6 6 5 4 4 4 5 5 6 7 7 7 7 7 6 6 6 5 5 4 5 7 7 7 6 6 7 9 10 10 9 8 7 7 6 6 7 6 4 2 2 2 2 3 2 1 2 0 1 2 2 3
21 21 18 18 21 22 23 22 20 18 17 16 14 14 13 11 11 10 10 8 7 6 6 6 7 7 7 7 8 8 8 7 7 7 6 5 4 5 5 4 5 5 5 6 6 7 7 7 7 6 7 6 6 7 8 7 7 6 5 6 9 11 10 10 9 8 7 7 7 7 6 5 3 1 2 2 3 3 1 2 1 2 2 2 2
17 19 18 17 21 22 22 21 20 18 17 15 13 12 11 10 9 8 7 7 7 7 7 7 8 8 8 8 9 9 8 8 8 8 7 5 5 6 5 4 5 5 5 4 5 6 7 8 8 7 7 8 8 8 9 8 7 7 5 5 8 10 11 10 10 9 8 7 8 7 5 4 3 2 1 2 3 3 3 1 3 4 2 2 2
18 19 19 17 19 21 22 21 19 18 16 15 13 11 10 10 9 8 7 8 8 8 8 7 8 8 8 8 9 8 7 7 8 8 7 5 5 7 6 5 4 4 4 4 4 6 7 8 8 8 8 8 9 9 9 10 8 7 7 5 6 8 10 10 9 9 8 7 7 6 4 3 3 2 1 2 3 3 4 4 4 5 4 2 3
23 22 20 18 18 20 22 18 16 18 17 15 13 12 11 10 8 8 9 8 8 7 7 7 7 7 7 8 9 8 7 8 7 8 8 6 6 7 6 6 5 4 5 4 5 6 7 7 7 7 8 8 8 8 9 10 9 8 7 6 5 6 8 9 9 8 8 7 6 5 4 3 3 2 1 2 3 3 4 5 5 6 6 5 3
26 25 22 20 19 21 21 18 15 16 17 15 13 12 11 9 8 8 8 7 7 6 7 7 7 7 8 9 9 8 8 7 7 8 7 7 6 6 6 6 5 5 5 5 5 6 6 7 6 6 6 6 6 7 8 9 9 8 7 7 6 5 6 8 9 9 8 7 6 5 4 4 4 3 2 2 3 3 3 4 5 6 7 7 5
25 25 23 21 21 21 20 20 17 15 15 15 14 13 11 9 8 8 7 6 6 5 6 7 8 8 8 7 7 6 6 6 6 6 6 6 7 7 7 7 7 7 7 6 6 6 6 6 7 6 6 6 5 5 7 8 9 9 8 8 8 7 6 7 9 9 9 8 7 6 5 6 6 5 4 4 4 4 4 3 4 5 6 7 7
23 23 22 21 21 21 19 20 18 16 16 15 15 13 11 9 8 7 7 6 5 4 5 6 7 6 5 5 4 4 4 5 5 6 6 6 6 8 8 7 7 7 7 7 7 7 7 6 7 7 6 5 5 5 6 7 8 8 8 8 8 8 8 8 8 9 9 9 8 8 8 8 7 6 6 5 5 5 5 4 3 4 6 6 7
22 23 22 21 20 20 19 18 18 19 18 17 15 13 11 9 8 8 7 5 5 5 5 5 5 4 3 3 3 3 3 3 4 5 5 6 6 7 7 7 6 7 7 7 8 8 8 7 7 6 6 5 5 5 5 7 8 8 8 8 7 8 8 9 8 8 8 8 8 10 11 10 9 7 6 6 6 6 7 6 5 4 5 5 6
22 23 23 22 20 19 19 20 20 20 19 18 16 14 12 11 10 8 7 5 5 5 5 4 3 2 2 2 2 3 2 2 2 3 4 5 5 5 5 4 4 5 5 6 7 8 7 7 7 7 7 6 5 4 5 6 8 9 8 8 8 7 7 7 7 7 7 6 7 9 10 10 9 7 7 7 7 8 8 7 6 5 5 5 5
23 24 23 21 19 19 21 21 21 19 19 18 17 15 14 12 11 9 7 5 3 3 3 3 3 2 1 1 2 2 1 0 1 1 2 2 3 2 2 1 1 1 1 2 4 5 6 6 6 7 6 5 5 6 6 6 7 8 9 10 9 9 8 7 6 6 6 6 7 8 9 9 9 8 7 7 8 9 9 9 8 7 7 7 7
24 24 23 21 21 21 21 20 18 17 16 17 16 14 13 12 10 8 5 3 3 3 3 3 3 1 0 0 0 1 1 1 2 2 2 2 2 1 1 0 1 1 2 1 1 2 3 4 5 5 4 4 4 6 6 6 6 8 9 9 9 9 9 8 7 7 7 7 8 9 9 9 9 9 7 6 7 8 9 9 9 9 10 10 10
25 23 22 23 24 23 19 16 15 13 13 14 14 12 11 10 7 6 4 3 4 4 4 4 3 2 2 2 1 1 1 1 1 1 1 1 1 2 2 2 1 1 1 1 1 2 2 1 2 3 3 4 4 5 6 6 8 9 9 9 8 9 9 8 7 6 7 8 9 9 9 9 9 9 7 7 7 8 8 9 10 10 10 12 12
25 23 25 27 24 21 16 13 14 12 12 13 12 10 11 9 6 4 3 3 4 4 4 4 4 3 3 4 3 3 2 1 1 1 1 2 3 3 2 1 1 1 1 0 1 1 2 1 1 1 2 2 3 4 5 7 8 8 7 8 8 8 8 7 8 7 7 8 8 9 8 9 10 9 9 9 8 9 9 10 11 10 10 11 12
27 26 29 29 23 18 14 13 14 14 14 14 13 11 10 9 6 4 3 3 3 4 3 3 3 4 4 5 4 4 3 2 1 1 2 3 3 4 4 5 5 4 3 2 2 2 2 3 2 1 1 0 2 3 3 5 5 5 4 6 7 7 6 6 7 7 7 6 7 9 9 10 11 10 10 10 9 9 10 11 11 10 10 10 11
29 28 30 29 22 17 14 12 13 14 14 14 13 11 10 8 5 3 3 2 3 3 3 3 3 4 4 4 3 3 3 3 3 3 3 5 6 5 6 6 6 6 5 4 5 4 4 4 3 2 2 3 2 1 1 2 3 3 3 4 4 4 5 5 5 6 6 6 7 8 9 9 10 9 9 10 11 11 12 13 13 13 12 11 11
30 29 30 27 21 18 14 13 14 14 15 14 11 9 8 6 2 3 2 1 2 3 3 3 3 3 3 3 2 3 4 4 4 5 6 6 6 5 5 5 5 5 4 4 5 5 6 6 6 5 5 5 4 2 1 2 2 2 3 4 4 4 4 5 4 4 4 5 6 7 8 8 8 8 9 10 12 13 14 14 14 14 13 13 13
31 29 28 24 20 18 14 13 15 14 15 13 9 7 6 4 3 5 4 4 3 3 3 2 2 2 2 1 2 3 4 5 6 7 7 6 6 5 5 6 5 5 4 3 4 5 7 7 9 9 8 7 6 4 3 2 2 1 2 3 4 5 4 5 4 3 4 4 4 5 6 6 6 7 7 9 10 11 12 12 12 12 12 12 12
28 25 24 22 20 18 13 12 14 14 14 12 8 7 5 2 2 4 4 5 4 3 3 2 1 1 1 2 3 4 5 5 6 7 7 7 8 7 7 6 5 4 3 2 2 4 7 8 9 9 8 8 8 7 6 5 3 2 1 1 2 3 3 4 5 5 5 6 5 3 4 4 5 6 5 6 7 7 7 8 8 9 9 10 11
22 21 21 20 17 15 13 12 14 15 14 11 9 8 6 4 1 4 4 4 4 3 3 2 1 1 2 3 4 5 5 5 7 8 9 9 10 10 9 7 6 6 5 4 4 6 7 5 6 5 5 6 6 8 9 8 7 6 6 6 5 5 3 1 3 6 8 9 7 6 5 4 6 6 4 4 3 3 3 4 4 5 6 7 8
12 15 17 18 15 13 12 12 15 16 14 11 9 8 7 6 3 3 4 4 3 3 3 2 2 1 2 3 4 5 5 7 9 10 11 11 11 10 10 9 9 10 10 10 9 8 6 4 4 5 5 5 5 6 7 8 8 8 7 7 8 8 6 5 5 6 9 9 8 10 9 6 8 9 6 4 3 1 0 1 2 3 4 5 6
5 9 13 14 14 14 13 14 16 16 13 10 10 9 8 7 4 4 4 3 4 4 5 4 3 2 2 3 4 5 7 10 12 12 12 11 11 11 10 10 10 11 12 12 11 10 8 8 8 8 8 7 6 5 5 5 6 6 5 5 5 4 4 5 6 7 9 8 10 13 11 8 10 11 9 7 6 4 4 3 3 5 6 6 7
Wind_Direction
170 174 170 170 171 171 172 170 170 170 167 162 157 153 151 147 142 136 135 143 152 158 160 160 157 154 151 148 146 145 144 140 138 140 142 142 143 146 143 139 140 146 150 153 152 152 153 149 141 134 132 132 129 125 119 114 110 106 102 97 95 93 90 87 85 82 80 79 78 77 76 77 80 81 82 84 87 88 84 79 74 67 60 57 57
168 171 170 170 170 173 174 173 173 170 168 162 157 155 152 147 140 134 133 142 153 160 162 162 159 157 153 148 148 150 149 144 146 148 149 146 144 145 144 138 136 140 145 149 151 153 154 153 147 140 136 136 134 130 124 117 113 111 105 101 99 96 93 89 87 85 83 82 80 79 78 78 80 81 81 82 84 87 86 81 75 69 61 55 56
165 167 169 170 171 175 176 177 175 171 169 164 159 157 154 147 139 133 132 141 152 160 163 163 162 159 154 151 152 154 151 150 153 154 153 147 145 147 145 141 138 139 143 145 148 151 152 153 154 150 143 140 138 135 128 119 117 115 110 105 102 99 96 92 89 86 85 83 82 82 80 79 77 77 79 81 83 85 84 82 78 72 64 56 56
165 165 168 170 171 176 178 180 178 173 170 166 164 159 156 149 140 134 132 139 148 156 161 162 162 160 157 154 152 152 150 152 155 152 149 145 146 149 145 142 144 143 141 140 142 148 151 154 158 159 154 147 142 141 133 123 122 120 115 110 106 101 98 94 90 87 85 84 83 83 80 79 77 74 75 79 83 83 83 82 80 75 68 60 57
166 166 169 171 173 178 180 181 179 176 171 168 167 162 157 150 143 137 135 139 143 149 154 157 158 156 152 147 145 143 144 143 143 142 141 141 142 142 139 138 140 138 135 136 141 147 149 153 158 162 163 154 146 146 138 128 128 125 120 115 110 104 101 98 93 88 84 82 83 82 78 77 77 76 72 72 76 80 83 81 79 76 70 63 59
168 168 170 171 173 178 180 180 179 178 173 170 169 166 159 152 148 142 138 138 140 144 147 151 150 148 145 143 141 140 138 134 132 132 132 132 129 128 131 129 120 117 120 121 132 147 149 153 158 164 168 160 154 152 142 135 134 131 126 120 115 109 105 103 97 90 84 83 83 81 77 74 74 75 73 69 71 76 80 80 78 76 72 65 61
171 172 172 173 175 177 179 179 180 180 177 175 174 170 163 157 153 148 142 138 139 141 144 146 146 147 146 142 139 136 133 131 130 129 129 129 122 114 118 122 116 117 125 124 133 153 152 154 158 163 169 167 161 155 148 143 142 138 133 128 121 114 110 107 101 92 87 83 80 78 76 73 69 70 72 70 67 71 76 79 79 77 74 69 64
175 175 175 176 176 176 176 179 181 181 181 180 178 173 168 163 158 153 147 142 141 141 144 145 148 149 142 138 137 134 133 133 132 132 135 136 128 112 109 122 129 134 136 138 152 168 154 155 157 160 168 170 165 158 154 150 149 145 140 138 130 121 115 110 103 95 87 81 76 73 72 69 66 67 69 67 64 68 73 76 79 79 77 73 68
177 177 178 177 177 175 175 179 181 182 183 181 179 175 170 166 162 156 151 147 145 145 147 149 150 144 139 141 139 135 133 133 133 136 140 139 134 120 111 118 132 140 141 149 163 164 150 157 156 156 163 165 168 165 159 154 155 152 146 145 139 130 123 116 108 97 88 80 75 70 67 64 61 61 64 65 64 67 70 71 75 80 80 77 72
177 179 180 179 176 175 176 178 180 182 183 181 179 175 170 167 162 158 155 151 149 149 150 152 149 142 144 146 139 134 131 132 132 135 138 136 131 122 117 113 122 136 142 155 164 158 147 155 152 147 152 159 171 171 166 162 160 157 150 149 148 140 131 124 114 100 91 83 76 71 68 65 61 57 56 60 65 66 68 69 72 76 79 79 77
178 180 180 179 175 173 174 176 179 181 182 181 176 172 168 165 162 160 157 154 153 152 152 152 151 150 152 150 143 136 130 131 132 133 134 131 128 122 120 114 113 124 137 154 166 165 159 159 152 148 154 165 175 173 171 169 161 157 156 154 154 149 138 131 119 105 96 88 78 74 71 69 66 59 55 56 63 65 66 70 71 72 75 78 78
179 179 177 174 173 170 171 174 177 179 180 178 172 168 164 162 161 160 158 156 155 155 154 155 158 159 159 156 147 137 128 128 129 129 129 128 126 122 119 114 110 115 127 144 159 166 167 166 162 162 165 172 177 174 174 176 163 155 159 158 158 157 145 135 124 113 102 94 84 78 73 70 66 61 56 53 58 62 64 71 72 70 73 76 78
176 174 172 168 167 165 167 171 172 173 175 172 168 165 162 159 157 157 159 158 157 157 158 160 162 163 166 162 147 135 127 127 128 127 126 126 123 118 117 116 112 109 110 123 143 158 165 167 172 176 177 179 179 174 173 181 171 153 157 162 160 157 148 138 128 120 110 100 92 84 79 75 69 66 61 53 56 60 62 71 75 71 72 75 78
174 169 168 166 167 166 168 172 171 170 170 171 169 165 163 163 163 161 159 159 158 160 163 164 167 170 173 168 149 133 128 130 131 127 124 124 119 114 115 118 118 113 107 108 128 154 167 170 174 181 186 188 180 174 173 182 180 157 156 165 160 153 147 140 132 124 119 111 101 92 86 80 73 71 67 55 52 58 60 70 77 74 72 75 77
178 171 170 169 171 170 171 174 175 178 177 178 179 176 173 174 179 173 160 159 159 162 166 169 176 175 171 166 150 135 132 133 131 128 126 121 115 113 115 119 120 113 108 104 114 145 169 176 176 182 188 190 181 177 179 184 189 166 156 164 160 151 146 141 135 130 128 123 111 100 93 86 80 72 65 54 46 53 62 70 75 75 75 75 76
183 178 173 171 172 168 167 169 176 186 185 183 187 184 178 176 179 170 160 161 163 168 175 175 174 167 161 156 145 137 135 135 134 133 130 126 118 116 117 117 115 111 107 103 105 124 157 173 178 186 191 192 188 185 186 188 196 179 157 159 158 151 146 141 138 135 133 129 119 111 103 92 89 78 65 55 44 47 59 67 67 71 77 77 77
184 182 176 174 170 162 162 164 169 181 184 188 193 187 181 176 169 160 159 165 167 173 177 170 163 160 159 152 144 140 139 139 140 140 137 131 123 118 116 113 112 111 106 98 98 107 135 162 174 186 193 195 195 192 193 193 199 192 162 156 156 153 148 143 141 135 132 131 122 116 109 97 100 92 70 55 45 38 41 57 58 60 72 77 78
183 182 179 176 168 162 168 170 169 176 180 185 189 186 180 168 161 160 163 169 173 175 170 163 160 162 159 152 149 145 141 144 145 146 141 131 123 117 112 112 113 109 101 93 93 102 120 147 166 181 193 198 199 198 198 198 202 199 172 157 155 154 152 147 143 136 130 128 121 112 105 101 112 105 80 58 48 32 25 36 50 60 64 70 77
180 180 178 173 170 168 172 173 169 170 172 175 176 177 172 163 165 169 170 173 175 174 167 161 162 162 159 156 155 150 144 145 147 148 139 128 120 115 112 113 112 104 96 92 95 105 118 139 162 180 193 198 201 203 202 202 205 205 185 164 157 155 154 151 145 138 130 123 118 110 102 100 115 109 95 77 54 35 25 26 31 62 61 61 73
178 178 176 174 180 174 168 167 163 165 170 171 169 170 171 173 179 175 174 179 176 174 168 163 164 165 163 162 159 156 154 149 148 146 137 128 120 114 112 111 109 102 95 95 101 110 121 139 160 179 193 200 203 205 206 207 208 209 201 176 163 159 156 153 148 141 132 124 117 109 102 95 99 114 110 104 67 32 29 31 31 51 57 54 67
176 176 176 177 182 171 163 164 164 167 170 169 166 167 172 177 178 172 177 183 179 177 171 167 167 167 163 164 167 165 165 158 150 147 142 133 124 115 109 105 103 102 100 102 107 114 123 140 160 177 192 203 205 208 209 210 211 211 211 193 172 165 162 158 152 146 139 131 121 110 102 88 67 113 111 111 103 20 11 32 34 37 35 48 66
176 174 175 178 177 168 164 167 168 168 167 168 167 169 173 173 172 173 177 177 175 176 172 169 167 164 160 165 172 171 171 160 147 145 148 143 131 120 111 107 107 110 111 112 114 119 124 141 164 181 195 205 209 212 214 215 215 215 215 206 183 170 169 167 161 155 151 143 131 116 101 78 47 48 83 123 146 301 302 332 30 23 356 29 115
176 173 174 175 172 168 167 168 169 169 169 170 167 170 173 171 172 175 174 172 173 174 171 169 166 164 165 171 175 175 174 164 156 155 158 156 142 131 125 128 136 133 127 126 126 130 132 143 165 186 201 211 214 216 217 219 220 218 218 215 198 176 169 171 170 166 160 156 144 126 104 70 37 25 2 329 271 270 269 276 339 3 332 314 198
177 174 174 172 172 169 167 169 168 170 172 170 169 173 174 171 173 172 172 171 171 172 172 172 170 171 172 176 177 175 173 169 170 169 166 167 155 148 152 158 157 150 145 145 142 145 150 154 163 179 200 217 220 220 221 221 224 223 221 219 212 189 170 168 173 173 170 166 155 135 107 67 31 15 2 350 333 295 266 266 278 298 294 287 212
178 176 173 171 174 170 167 172 172 172 172 170 170 173 173 172 171 171 172 172 172 173 175 176 174 174 174 176 178 177 176 175 181 182 177 179 176 173 171 168 163 168 175 167 161 162 167 172 174 177 192 215 222 224 224 222 224 226 225 223 220 207 183 171 173 176 177 179 175 148 113 70 33 11 1 357 343 312 268 260 265 261 268 270 217
178 175 172 172 175 171 170 173 172 172 169 168 167 168 176 176 174 176 174 174 176 176 176 176 175 176 178 184 187 189 195 201 209 206 204 205 205 195 174 177 187 189 185 179 182 179 177 184 193 203 205 213 224 225 222 220 221 225 227 225 222 217 202 186 176 174 172 176 184 161 123 76 37 13 360 358 355 333 281 257 259 255 262 263 236
176 174 174 174 173 172 175 172 171 172 167 169 168 166 178 177 175 177 175 175 177 178 178 177 182 185 190 200 205 209 215 224 233 231 235 236 227 214 192 202 212 202 191 189 196 194 186 187 197 212 221 223 228 225 218 217 217 221 226 225 223 221 214 204 193 184 171 169 179 168 137 90 39 14 2 357 356 346 297 257 265 263 257 255 252
174 174 176 175 172 175 178 174 174 176 170 173 173 169 177 177 174 175 174 177 182 185 186 185 192 198 208 219 220 225 228 234 241 241 245 243 235 231 214 217 218 205 200 196 198 204 197 188 190 202 223 235 234 223 217 216 214 216 224 225 223 221 218 214 210 201 188 181 188 188 177 132 28 3 358 349 347 345 297 245 276 271 256 253 258
179 177 178 178 175 177 179 178 179 179 174 177 179 177 181 181 178 177 178 181 188 191 189 190 199 215 229 233 234 235 232 237 242 240 241 235 234 237 215 215 218 205 205 202 200 209 208 200 192 192 211 230 234 221 219 221 214 212 222 225 222 220 220 218 217 212 205 204 210 220 226 230 269 315 332 336 336 336 253 201 292 268 259 261 258
188 183 180 182 181 179 180 183 185 180 178 181 182 184 188 185 179 181 183 181 186 191 191 198 214 232 242 242 241 238 235 239 239 235 239 237 233 228 197 195 209 202 202 204 203 206 210 209 201 199 206 218 228 218 217 225 221 210 212 218 217 217 219 221 220 216 213 213 218 228 229 228 242 285 307 324 333 331 214 192 303 269 259 269 261
193 188 183 185 186 183 182 188 192 185 183 184 181 186 190 184 182 186 183 179 187 199 212 227 237 242 245 246 246 243 240 240 235 233 241 248 237 213 186 178 195 196 196 201 202 201 205 209 206 206 208 212 225 223 217 224 229 223 210 206 209 212 214 218 222 221 217 212 213 218 214 213 222 256 301 326 336 341 292 212 309 307 257 253 260
195 195 189 186 185 184 186 192 197 193 188 185 180 184 186 187 192 191 186 189 200 216 231 246 252 247 244 248 252 251 244 240 239 239 244 250 231 204 191 189 196 198 201 196 192 197 203 209 209 211 212 213 223 227 225 227 231 233 226 209 204 208 210 213 220 222 215 204 203 205 200 200 204 218 298 329 341 354 2 344 344 334 280 242 254
195 201 199 193 183 183 191 195 200 198 191 188 187 185 189 197 200 198 204 208 212 227 244 253 250 244 246 252 256 254 246 241 242 243 244 242 220 200 198 213 211 203 209 200 189 195 197 203 209 215 219 220 224 230 233 234 235 235 233 223 207 208 211 214 219 218 208 196 194 195 190 189 196 202 295 331 342 358 10 9 359 356 346 304 283
197 205 209 202 188 188 196 199 201 199 194 190 189 191 197 203 205 211 215 211 212 223 237 247 248 251 255 255 256 254 247 243 241 241 243 240 224 208 206 218 218 209 211 208 201 198 196 199 208 216 221 222 227 231 232 236 239 240 235 229 218 210 212 216 220 216 207 201 200 199 198 195 195 203 275 312 328 343 359 3 359 360 359 348 320
198 205 211 203 192 196 201 203 208 204 197 192 190 197 202 204 206 209 205 202 213 224 239 255 262 264 260 256 256 254 248 244 239 237 239 240 231 222 216 213 214 210 207 209 208 204 202 207 215 218 215 216 224 231 232 235 240 245 244 236 225 215 214 216 217 218 216 216 221 222 218 210 207 211 244 285 303 314 337 354 356 357 357 355 348
200 202 207 202 195 198 196 198 210 214 205 196 195 198 198 198 199 194 192 203 219 230 245 255 256 254 254 255 255 250 244 243 240 235 236 236 231 231 227 217 213 210 207 212 214 212 213 217 222 218 211 212 218 226 231 237 242 246 249 244 230 218 216 217 218 220 222 226 230 235 231 220 218 220 229 255 276 287 298 322 343 351 353 356 357
200 199 202 203 200 198 193 196 209 216 209 200 196 193 191 193 190 186 194 210 216 216 229 237 238 238 239 243 244 243 240 237 237 236 236 235 232 231 228 220 216 216 219 222 223 225 224 221 221 215 209 210 212 219 229 239 245 246 248 248 243 236 233 233 232 226 223 227 232 239 239 230 227 228 231 242 262 273 274 285 310 336 346 352 356
194 196 200 202 201 198 192 194 205 209 205 198 191 187 189 193 189 194 203 206 199 193 200 206 212 212 211 221 231 245 246 232 229 231 231 230 231 232 229 223 221 224 227 227 231 233 230 224 218 214 213 211 215 221 226 233 238 240 244 249 250 248 240 233 234 233 228 228 233 238 237 233 231 236 242 245 255 259 254 268 289 312 333 339 347
189 194 199 201 200 199 191 189 198 205 202 191 183 182 190 196 196 200 198 189 182 174 170 171 185 189 181 199 220 237 247 237 222 215 216 220 223 228 228 225 226 232 232 234 241 243 241 234 223 219 217 220 224 222 220 227 233 235 240 248 250 249 241 230 229 232 229 229 234 236 232 230 230 236 246 250 253 252 244 253 272 284 296 300 311
187 188 194 199 198 200 198 196 199 205 201 184 178 184 189 194 196 192 179 171 166 148 142 138 140 147 158 210 221 213 208 165 130 145 165 176 186 203 210 218 249 270 265 258 258 262 261 252 244 238 227 224 225 219 216 218 230 240 244 250 253 254 253 249 244 237 232 232 236 236 230 227 228 231 238 246 251 251 245 246 255 264 272 275 279
185 183 191 197 199 202 203 203 201 204 202 185 178 186 188 187 182 173 163 155 144 130 123 125 130 144 166 333 340 151 125 89 79 89 106 122 139 168 188 18 11 20 25 12 347 308 283 266 262 258 240 221 220 222 221 217 226 237 243 250 254 255 257 256 253 246 235 230 232 235 234 230 228 226 224 232 244 251 253 256 259 262 266 271 275
183 183 190 195 201 206 205 203 194 195 203 191 181 182 180 175 159 152 154 145 140 133 127 132 135 128 101 77 59 84 112 100 82 71 61 14 313 303 297 293 292 295 341 356 19 19 330 292 274 273 247 221 210 219 227 226 231 234 238 248 254 253 252 249 245 241 228 219 219 226 230 232 233 231 230 239 251 258 262 267 270 269 268 267 269
184 187 192 194 199 203 203 197 184 185 201 193 181 177 170 160 143 141 144 133 135 133 131 129 118 103 85 72 68 81 106 151 245 298 327 323 330 345 1 42 96 141 156 325 353 36 19 32 68 291 268 239 203 210 231 233 235 238 237 241 248 249 249 244 238 238 230 218 216 221 225 234 241 243 247 253 259 263 264 267 271 272 271 269 268
189 194 197 198 197 195 195 189 182 187 196 189 177 171 163 155 150 148 141 130 131 128 123 104 84 78 60 50 60 79 86 85 52 345 349 4 21 47 68 85 94 96 99 87 68 59 52 55 48 29 40 168 190 199 233 240 241 241 226 226 235 242 246 242 234 236 234 220 219 227 230 239 248 253 256 257 259 261 262 263 266 269 271 271 269
194 200 202 202 193 187 189 186 185 190 192 185 174 167 162 160 155 140 142 156 155 137 110 84 69 63 41 33 55 84 86 80 73 63 57 56 56 61 69 81 89 89 87 82 72 61 58 58 46 49 71 82 127 160 194 221 242 247 237 237 240 245 254 248 231 227 227 218 220 229 233 239 246 249 254 257 256 257 260 263 266 267 267 268 271
200 204 204 201 188 183 188 187 189 193 192 183 173 170 166 158 119 81 85 105 147 145 118 86 60 48 18 22 75 97 98 90 79 76 76 68 56 52 59 71 81 86 82 72 62 55 55 58 64 69 70 76 89 92 105 150 181 227 242 242 246 260 262 249 229 206 201 202 214 223 228 236 241 240 244 253 256 259 263 267 269 272 274 275 277
202 205 205 199 188 188 193 191 192 195 193 183 177 178 165 146 74 72 79 78 91 117 117 87 44 29 355 40 91 99 98 86 74 77 76 64 53 58 73 76 75 73 68 53 39 52 63 65 70 74 74 77 89 98 94 104 128 178 228 229 256 277 269 254 234 195 178 175 198 217 219 228 234 232 237 248 254 258 264 269 274 281 286 285 283
203 204 203 198 196 199 199 195 197 199 194 184 183 182 169 163 71 85 103 103 92 89 91 64 22 33 66 99 100 94 89 74 70 76 75 69 72 84 89 80 66 50 41 33 34 74 83 76 72 73 72 74 80 86 86 86 100 108 94 104 306 306 271 248 227 207 183 149 147 186 196 210 215 207 215 234 247 256 265 276 283 291 294 291 289
205 204 203 201 202 201 198 199 202 200 193 187 191 187 184 206 145 107 126 117 93 78 71 38 24 72 95 102 99 89 81 72 77 83 83 86 90 91 86 75 67 63 67 80 93 102 100 81 66 61 60 71 78 80 81 82 89 93 88 86 75 68 75 132 188 195 184 155 146 153 152 173 176 161 168 197 230 258 271 288 297 305 310 310 305
213 212 209 204 199 193 192 202 205 200 192 191 200 193 191 207 182 135 138 113 87 66 50 26 27 62 81 93 96 91 89 92 95 95 94 96 94 90 85 79 78 79 81 85 91 100 103 87 72 62 58 71 83 84 83 83 87 89 85 82 81 77 76 81 103 160 181 172 157 146 139 151 144 127 127 133 117 114 117 333 326 338 344 352 351
244 221 211 202 197 196 194 200 204 199 192 197 207 198 193 203 190 160 145 112 84 55 33 22 24 35 68 90 97 100 106 107 105 104 101 97 92 88 86 83 81 81 83 87 91 94 95 91 86 79 77 80 86 90 90 88 83 79 72 71 82 92 103 104 110 143 171 175 161 145 135 133 127 119 121 121 112 107 96 69 55 46 34 31 30
Height
1509 1512 1514 1515 1517 1518 1520 1521 1522 1522 1524 1525 1526 1527 1528 1529 1530 1531 1532 1533 1534 1535 1536 1537 1538 1539 1540 1541 1541 1542 1542 1543 1543 1544 1544 1544 1545 1545 1546 1546 1547 1548 1549 1550 1551 1551 1552 1552 1553 1553 1553 1554 1555 1555 1556 1556 1556 1556 1557 1556 1556 1556 1557 1557 1557 1557 1556 1556 1555 1555 1555 1555 1554 1554 1554 1553 1553 1553 1553 1552 1552 1551 1550 1549 1548
1508 1512 1514 1515 1517 1518 1520 1521 1522 1523 1524 1525 1527 1527 1529 1529 1530 1532 1533 1534 1535 1536 1537 1538 1539 1540 1540 1541 1542 1542 1543 1543 1544 1544 1545 1545 1546 1546 1546 1547 1547 1549 1550 1551 1551 1552 1553 1553 1553 1554 1554 1555 1556 1556 1557 1557 1557 1557 1558 1557 1557 1558 1558 1559 1558 1558 1558 1557 1557 1557 1556 1556 1556 1555 1555 1555 1554 1554 1554 1553 1553 1552 1552 1550 1549
1508 1511 1513 1515 1517 1518 1520 1521 1522 1524 1525 1526 1527 1528 1529 1530 1531 1533 1534 1535 1536 1537 1538 1539 1540 1540 1541 1542 1542 1543 1544 1544 1544 1545 1545 1546 1546 1547 1547 1547 1548 1549 1550 1551 1552 1552 1553 1554 1554 1554 1555 1556 1557 1557 1558 1558 1558 1558 1559 1558 1559 1559 1559 1560 1560 1559 1559 1558 1558 1558 1558 1557 1557 1557 1556 1556 1556 1555 1555 1555 1554 1554 1553 1552 1551
1509 1511 1513 1515 1517 1519 1520 1521 1523 1524 1525 1527 1528 1529 1530 1531 1533 1534 1535 1536 1537 1538 1539 1540 1540 1541 1541 1542 1543 1543 1544 1545 1545 1546 1546 1546 1547 1548 1548 1548 1549 1549 1550 1551 1552 1553 1553 1554 1554 1555 1555 1556 1557 1558 1559 1559 1559 1559 1559 1559 1559 1560 1560 1561 1561 1561 1560 1560 1559 1559 1559 1559 1559 1558 1558 1557 1557 1557 1556 1556 1556 1555 1554 1553 1552
1509 1511 1513 1514 1517 1519 1520 1522 1523 1524 1526 1527 1528 1529 1531 1532 1533 1535 1536 1537 1538 1539 1540 1541 1541 1542 1542 1543 1544 1544 1545 1546 1547 1547 1547 1547 1548 1548 1549 1549 1550 1550 1551 1552 1552 1553 1553 1554 1555 1555 1556 1557 1558 1559 1559 1560 1560 1560 1560 1560 1560 1561 1561 1562 1562 1562 1562 1561 1561 1560 1560 1560 1560 1559 1559 1559 1559 1558 1558 1557 1557 1556 1555 1555 1553
1509 1511 1512 1514 1517 1518 1520 1522 1523 1524 1526 1527 1529 1530 1532 1533 1534 1535 1536 1538 1539 1540 1541 1542 1543 1543 1543 1544 1545 1546 1546 1547 1547 1548 1548 1548 1548 1549 1550 1550 1551 1552 1552 1553 1553 1553 1553 1554 1555 1555 1556 1557 1558 1559 1560 1561 1561 1561 1561 1561 1561 1561 1562 1562 1563 1563 1563 1563 1562 1562 1562 1561 1561 1561 1561 1561 1560 1559 1559 1559 1558 1558 1557 1556 1555
1510 1511 1512 1514 1516 1518 1521 1522 1524 1525 1526 1528 1529 1531 1532 1533 1534 1535 1537 1538 1539 1540 1542 1543 1544 1544 1545 1545 1546 1546 1547 1548 1549 1549 1550 1549 1550 1550 1551 1551 1552 1553 1553 1554 1554 1554 1554 1554 1554 1555 1556 1557 1558 1559 1561 1561 1562 1562 1562 1562 1562 1562 1563 1563 1564 1564 1564 1564 1563 1563 1563 1563 1563 1562 1562 1562 1562 1561 1560 1560 1559 1559 1558 1558 1557
1510 1511 1513 1515 1517 1519 1521 1523 1524 1526 1527 1528 1530 1531 1532 1534 1535 1536 1537 1538 1540 1541 1543 1544 1545 1546 1546 1546 1547 1547 1548 1548 1549 1550 1551 1551 1551 1551 1551 1552 1553 1553 1554 1555 1555 1554 1554 1554 1554 1555 1556 1557 1558 1559 1561 1562 1562 1563 1563 1563 1563 1563 1563 1564 1564 1565 1565 1565 1565 1565 1564 1564 1564 1564 1563 1563 1563 1563 1562 1561 1561 1560 1560 1559 1558
1510 1512 1514 1515 1517 1519 1521 1523 1524 1526 1528 1529 1530 1531 1533 1534 1535 1536 1537 1539 1540 1541 1542 1544 1546 1547 1547 1547 1548 1548 1548 1549 1550 1551 1551 1552 1552 1552 1552 1552 1553 1554 1554 1555 1555 1555 1554 1555 1555 1555 1556 1557 1558 1559 1560 1562 1562 1563 1563 1563 1564 1564 1564 1565 1565 1565 1565 1566 1566 1566 1566 1566 1565 1565 1564 1564 1564 1564 1564 1563 1562 1562 1561 1561 1560
1510 1512 1514 1516 1518 1520 1521 1523 1525 1527 1528 1529 1530 1532 1533 1534 1535 1536 1538 1539 1540 1541 1542 1544 1546 1547 1548 1548 1549 1549 1550 1550 1551 1551 1552 1552 1553 1552 1552 1553 1553 1554 1555 1555 1555 1555 1555 1555 1555 1556 1557 1557 1558 1559 1560 1561 1562 1563 1564 1564 1564 1565 1565 1565 1565 1566 1566 1566 1566 1567 1567 1567 1567 1566 1566 1565 1565 1565 1565 1565 1564 1563 1563 1562 1562
1511 1513 1514 1517 1519 1520 1522 1524 1525 1527 1528 1529 1530 1532 1533 1534 1535 1537 1538 1539 1540 1541 1542 1543 1546 1547 1549 1549 1549 1550 1550 1551 1552 1552 1552 1553 1553 1553 1553 1553 1553 1554 1555 1555 1555 1555 1555 1555 1556 1556 1557 1558 1558 1559 1560 1561 1562 1563 1564 1564 1565 1565 1566 1566 1566 1566 1566 1567 1567 1567 1568 1567 1568 1567 1567 1567 1566 1566 1566 1566 1565 1565 1564 1564 1563
1511 1513 1515 1517 1519 1521 1522 1524 1526 1527 1528 1529 1530 1532 1534 1535 1536 1537 1538 1539 1541 1542 1542 1543 1545 1547 1549 1550 1550 1550 1551 1552 1552 1552 1553 1554 1554 1554 1554 1554 1554 1554 1555 1555 1555 1555 1555 1555 1556 1557 1557 1558 1558 1559 1560 1561 1563 1564 1564 1564 1565 1565 1566 1566 1567 1567 1567 1567 1567 1568 1568 1568 1568 1568 1568 1567 1567 1567 1567 1567 1567 1566 1566 1565 1565
1511 1513 1516 1518 1519 1521 1522 1524 1526 1527 1528 1529 1531 1532 1534 1535 1537 1538 1539 1540 1541 1542 1542 1543 1545 1547 1549 1550 1550 1550 1551 1552 1552 1553 1553 1554 1554 1554 1555 1555 1555 1555 1555 1555 1555 1555 1555 1556 1556 1557 1558 1558 1559 1560 1560 1561 1562 1564 1564 1564 1565 1565 1566 1567 1567 1568 1567 1568 1568 1568 1568 1569 1569 1569 1568 1568 1568 1568 1568 1568 1567 1567 1567 1567 1566
1511 1514 1516 1518 1519 1521 1522 1522 1524 1526 1528 1529 1530 1532 1533 1535 1536 1538 1539 1540 1541 1542 1543 1544 1546 1548 1549 1550 1550 1551 1551 1552 1553 1553 1554 1554 1555 1555 1555 1556 1556 1556 1556 1555 1555 1555 1556 1556 1556 1557 1558 1559 1559 1560 1561 1561 1562 1564 1565 1565 1565 1566 1567 1567 1568 1568 1568 1568 1568 1568 1569 1569 1569 1569 1569 1569 1569 1569 1568 1568 1568 1568 1568 1568 1567
1512 1514 1516 1517 1519 1520 1521 1522 1523 1525 1527 1529 1530 1531 1533 1535 1536 1537 1539 1541 1542 1543 1544 1545 1546 1548 1549 1550 1551 1551 1552 1553 1553 1554 1554 1555 1555 1555 1556 1556 1556 1556 1556 1556 1555 1555 1556 1556 1556 1557 1558 1559 1560 1561 1561 1562 1562 1564 1565 1566 1566 1566 1567 1567 1568 1568 1568 1568 1568 1569 1569 1569 1569 1569 1569 1569 1569 1569 1569 1569 1569 1569 1569 1569 1569
1513 1514 1516 1517 1518 1520 1522 1524 1525 1525 1527 1530 1530 1531 1532 1535 1537 1537 1540 1542 1542 1543 1544 1545 1547 1548 1550 1551 1552 1552 1553 1553 1554 1554 1555 1555 1555 1556 1556 1556 1557 1557 1556 1556 1556 1556 1556 1556 1557 1558 1558 1559 1560 1561 1562 1562 1563 1564 1566 1566 1567 1567 1567 1568 1568 1568 1568 1568 1568 1569 1569 1569 1569 1569 1570 1570 1570 1570 1570 1570 1570 1570 1570 1570 1569
1513 1515 1516 1517 1518 1520 1523 1525 1526 1527 1528 1530 1530 1531 1533 1535 1538 1538 1540 1542 1542 1542 1544 1545 1547 1549 1551 1552 1552 1553 1553 1553 1554 1555 1555 1555 1556 1556 1557 1557 1557 1557 1557 1557 1557 1557 1557 1557 1557 1558 1559 1560 1561 1561 1562 1563 1563 1564 1565 1566 1567 1567 1568 1568 1568 1568 1568 1568 1569 1569 1569 1569 1570 1570 1570 1570 1570 1570 1570 1570 1571 1571 1570 1570 1570
1513 1515 1517 1518 1519 1521 1523 1525 1526 1527 1528 1529 1530 1531 1533 1535 1537 1539 1540 1541 1541 1543 1544 1546 1548 1550 1551 1552 1552 1553 1553 1554 1555 1555 1556 1556 1556 1557 1557 1558 1558 1558 1558 1558 1557 1557 1557 1558 1558 1559 1559 1560 1561 1562 1563 1563 1564 1564 1565 1566 1567 1568 1568 1568 1569 1569 1569 1569 1569 1569 1569 1570 1570 1570 1570 1570 1570 1571 1571 1571 1571 1571 1571 1571 1571
1513 1515 1517 1518 1520 1522 1523 1524 1525 1527 1528 1529 1530 1532 1533 1534 1537 1538 1539 1540 1541 1543 1545 1547 1548 1550 1551 1552 1553 1553 1554 1554 1555 1556 1556 1556 1557 1557 1558 1559 1559 1559 1559 1558 1558 1558 1558 1558 1559 1559 1560 1560 1561 1562 1563 1563 1564 1564 1565 1566 1567 1568 1568 1569 1569 1569 1569 1569 1569 1570 1570 1570 1570 1570 1570 1570 1570 1571 1571 1571 1571 1571 1572 1572 1572
1514 1515 1517 1519 1520 1522 1523 1524 1526 1527 1529 1530 1531 1532 1533 1534 1536 1537 1538 1540 1542 1544 1546 1548 1549 1550 1551 1553 1553 1553 1554 1555 1556 1556 1556 1556 1557 1558 1559 1560 1560 1560 1560 1560 1559 1559 1559 1559 1560 1560 1560 1561 1561 1562 1563 1563 1564 1564 1565 1566 1567 1568 1569 1569 1569 1570 1570 1570 1570 1570 1570 1570 1570 1570 1570 1570 1570 1571 1571 1571 1571 1572 1572 1572 1572
1514 1515 1517 1519 1520 1522 1524 1525 1527 1528 1530 1531 1532 1533 1534 1535 1536 1537 1539 1541 1543 1545 1547 1548 1549 1550 1551 1552 1553 1554 1555 1555 1556 1556 1556 1557 1557 1559 1560 1561 1561 1561 1561 1560 1560 1560 1560 1560 1561 1561 1561 1561 1562 1562 1563 1563 1564 1564 1565 1566 1567 1568 1569 1569 1570 1570 1570 1570 1570 1570 1570 1570 1570 1570 1570 1570 1570 1570 1571 1571 1571 1572 1572 1572 1573
1513 1515 1517 1519 1520 1522 1524 1526 1527 1529 1530 1532 1533 1534 1535 1536 1537 1538 1540 1541 1543 1545 1547 1548 1549 1550 1551 1552 1554 1554 1555 1556 1556 1556 1556 1557 1557 1559 1560 1561 1561 1561 1560 1560 1560 1561 1561 1561 1561 1562 1562 1562 1562 1563 1563 1564 1564 1565 1565 1566 1567 1568 1569 1569 1570 1570 1570 1570 1570 1570 1570 1571 1571 1570 1570 1570 1570 1570 1571 1571 1571 1572 1572 1572 1573
1514 1516 1517 1519 1521 1523 1525 1526 1528 1529 1531 1532 1533 1534 1535 1536 1537 1539 1540 1541 1543 1546 1547 1549 1549 1550 1551 1553 1554 1555 1555 1555 1555 1555 1556 1556 1557 1558 1559 1560 1560 1559 1559 1559 1560 1560 1561 1561 1562 1562 1562 1562 1562 1563 1563 1564 1564 1565 1566 1566 1567 1568 1568 1569 1570 1570 1570 1570 1570 1570 1570 1571 1571 1571 1570 1570 1570 1571 1571 1571 1571 1572 1572 1572 1572
1514 1516 1518 1519 1521 1523 1524 1526 1528 1530 1530 1532 1533 1534 1535 1537 1538 1539 1541 1543 1545 1546 1548 1549 1550 1551 1552 1553 1554 1554 1554 1554 1554 1554 1555 1556 1557 1558 1558 1558 1558 1559 1559 1558 1559 1560 1561 1561 1561 1562 1562 1562 1563 1563 1564 1564 1564 1565 1566 1566 1567 1567 1568 1569 1570 1570 1570 1570 1570 1570 1571 1571 1571 1571 1571 1570 1570 1570 1571 1571 1571 1572 1572 1572 1572
1514 1516 1518 1519 1521 1522 1525 1527 1528 1530 1531 1533 1534 1536 1537 1538 1539 1540 1542 1544 1546 1547 1548 1549 1550 1551 1552 1553 1554 1554 1553 1553 1553 1554 1555 1555 1556 1557 1558 1558 1558 1558 1558 1558 1559 1559 1560 1561 1561 1562 1562 1562 1562 1563 1563 1564 1564 1565 1565 1566 1567 1567 1568 1569 1569 1570 1570 1571 1571 1570 1571 1571 1571 1571 1571 1571 1570 1570 1571 1571 1571 1571 1571 1572 1572
1515 1517 1519 1520 1521 1523 1525 1527 1529 1531 1533 1534 1535 1537 1539 1540 1540 1541 1543 1545 1547 1547 1548 1549 1550 1551 1552 1553 1553 1553 1553 1552 1553 1553 1554 1555 1556 1557 1557 1558 1558 1557 1557 1558 1559 1559 1560 1561 1561 1561 1561 1562 1562 1562 1563 1563 1564 1565 1565 1566 1566 1567 1568 1568 1569 1570 1570 1570 1570 1570 1571 1571 1571 1571 1571 1571 1571 1570 1570 1571 1571 1571 1571 1572 1572
1515 1518 1519 1521 1522 1524 1525 1527 1529 1531 1533 1535 1536 1538 1540 1541 1542 1543 1545 1546 1547 1548 1549 1549 1550 1551 1552 1552 1552 1552 1552 1552 1552 1553 1554 1554 1555 1556 1556 1557 1557 1557 1557 1557 1558 1559 1559 1559 1560 1560 1561 1561 1561 1562 1562 1563 1564 1564 1565 1565 1566 1567 1567 1568 1569 1570 1570 1570 1570 1570 1570 1571 1571 1571 1571 1571 1571 1571 1570 1571 1571 1571 1571 1572 1572
1517 1519 1520 1522 1523 1524 1525 1527 1529 1530 1532 1534 1536 1538 1540 1541 1542 1543 1545 1546 1547 1548 1549 1549 1550 1551 1551 1551 1552 1551 1552 1552 1552 1553 1553 1554 1554 1555 1556 1556 1556 1556 1556 1557 1557 1558 1558 1559 1559 1559 1560 1561 1561 1561 1562 1563 1563 1564 1565 1565 1566 1566 1567 1567 1568 1569 1570 1570 1570 1570 1570 1570 1571 1571 1571 1571 1570 1570 1570 1570 1571 1571 1571 1571 1572
1517 1519 1520 1522 1524 1525 1526 1527 1529 1530 1532 1534 1536 1538 1539 1541 1542 1543 1544 1545 1546 1548 1548 1549 1549 1550 1550 1550 1551 1551 1551 1551 1552 1552 1552 1553 1553 1553 1555 1555 1555 1556 1556 1556 1557 1557 1558 1558 1559 1559 1560 1560 1561 1562 1562 1563 1563 1564 1564 1565 1566 1566 1566 1567 1568 1569 1569 1570 1570 1570 1570 1570 1570 1571 1571 1570 1570 1570 1570 1570 1571 1571 1571 1571 1572
1515 1518 1520 1522 1523 1524 1526 1527 1528 1530 1532 1533 1535 1537 1539 1541 1542 1543 1544 1545 1546 1547 1548 1548 1548 1549 1549 1550 1550 1550 1550 1551 1551 1551 1551 1552 1552 1552 1554 1555 1555 1555 1555 1556 1556 1557 1557 1558 1558 1559 1559 1560 1561 1561 1562 1562 1563 1564 1564 1565 1565 1566 1566 1567 1568 1568 1569 1569 1569 1570 1570 1570 1570 1570 1570 1570 1570 1570 1570 1570 1570 1571 1571 1571 1571
1516 1518 1520 1521 1523 1524 1525 1526 1528 1529 1531 1533 1535 1537 1538 1540 1541 1542 1543 1544 1545 1546 1546 1547 1547 1548 1548 1549 1549 1549 1549 1550 1550 1551 1551 1551 1551 1552 1554 1555 1554 1554 1555 1555 1555 1556 1556 1557 1557 1558 1559 1559 1560 1561 1561 1562 1562 1563 1564 1564 1565 1566 1566 1567 1567 1568 1568 1568 1569 1569 1569 1570 1570 1570 1571 1571 1570 1570 1570 1570 1571 1571 1571 1571 1571
1518 1519 1520 1521 1523 1524 1525 1526 1528 1529 1530 1532 1534 1535 1537 1538 1540 1541 1542 1543 1543 1544 1545 1545 1546 1547 1547 1548 1548 1548 1549 1549 1550 1550 1550 1550 1551 1551 1553 1553 1553 1553 1554 1554 1555 1555 1555 1556 1556 1557 1558 1559 1560 1560 1561 1561 1562 1563 1564 1564 1565 1566 1566 1567 1567 1567 1568 1568 1568 1569 1569 1569 1570 1570 1570 1571 1571 1570 1570 1571 1571 1571 1571 1571 1571
1518 1519 1521 1521 1523 1525 1526 1526 1528 1529 1530 1531 1533 1534 1536 1537 1539 1540 1541 1542 1542 1543 1544 1545 1545 1546 1546 1547 1547 1548 1548 1549 1549 1549 1549 1550 1550 1551 1552 1553 1553 1553 1553 1553 1554 1554 1554 1555 1556 1556 1557 1558 1559 1560 1560 1561 1562 1563 1563 1564 1565 1565 1566 1566 1567 1567 1567 1568 1568 1568 1569 1569 1569 1570 1570 1570 1571 1571 1571 1571 1571 1571 1571 1571 1571
1515 1518 1520 1521 1524 1525 1526 1527 1529 1529 1530 1531 1532 1533 1535 1536 1538 1539 1540 1541 1541 1542 1543 1544 1545 1545 1546 1546 1547 1547 1548 1548 1549 1549 1549 1549 1550 1550 1551 1552 1552 1552 1552 1552 1553 1553 1554 1554 1555 1556 1556 1557 1558 1559 1560 1561 1561 1562 1563 1564 1564 1565 1565 1566 1566 1566 1567 1567 1568 1568 1569 1569 1569 1570 1570 1570 1570 1571 1571 1571 1571 1571 1571 1571 1571
1513 1516 1519 1521 1523 1524 1526 1529 1531 1531 1531 1531 1532 1533 1534 1536 1537 1538 1539 1540 1541 1541 1542 1543 1544 1545 1545 1546 1547 1547 1547 1548 1548 1548 1548 1549 1549 1550 1551 1551 1552 1552 1552 1552 1552 1552 1553 1554 1554 1555 1556 1557 1558 1559 1559 1560 1560 1561 1562 1563 1563 1564 1565 1565 1565 1565 1566 1567 1567 1568 1568 1569 1569 1569 1570 1570 1570 1570 1571 1571 1571 1571 1571 1571 1571
1514 1515 1517 1519 1521 1523 1526 1529 1531 1532 1532 1531 1532 1532 1534 1535 1536 1537 1539 1540 1541 1541 1542 1543 1544 1545 1546 1546 1547 1547 1547 1547 1547 1548 1548 1548 1548 1549 1550 1550 1551 1551 1551 1551 1552 1552 1552 1553 1553 1554 1555 1556 1557 1558 1558 1559 1560 1560 1561 1561 1562 1563 1563 1564 1564 1564 1565 1566 1566 1567 1568 1568 1569 1569 1569 1570 1570 1570 1570 1570 1570 1570 1570 1570 1570
1514 1515 1516 1518 1521 1523 1526 1529 1531 1532 1532 1531 1531 1532 1533 1535 1536 1537 1538 1540 1541 1542 1543 1544 1545 1546 1546 1546 1547 1547 1547 1547 1547 1547 1547 1548 1548 1548 1549 1550 1550 1550 1551 1551 1551 1551 1552 1552 1553 1553 1554 1555 1556 1557 1557 1558 1558 1559 1559 1560 1560 1561 1562 1563 1563 1563 1564 1565 1565 1566 1567 1568 1568 1568 1569 1569 1570 1570 1570 1570 1570 1570 1570 1570 1570
1513 1514 1516 1517 1520 1523 1525 1527 1529 1530 1529 1530 1530 1532 1533 1534 1536 1537 1538 1540 1541 1543 1544 1544 1545 1546 1546 1546 1546 1546 1546 1547 1547 1547 1547 1547 1548 1548 1549 1549 1549 1550 1550 1550 1550 1551 1551 1551 1552 1552 1553 1554 1554 1555 1556 1557 1557 1558 1558 1559 1559 1560 1561 1562 1562 1562 1563 1563 1564 1565 1566 1567 1567 1568 1568 1569 1569 1569 1570 1570 1570 1570 1570 1570 1570
1512 1514 1515 1517 1519 1521 1523 1524 1525 1526 1527 1528 1529 1531 1533 1534 1536 1537 1539 1540 1541 1543 1543 1544 1545 1546 1546 1546 1546 1546 1546 1546 1546 1547 1547 1547 1548 1548 1548 1549 1549 1549 1549 1549 1550 1550 1550 1550 1551 1551 1551 1552 1553 1554 1555 1555 1556 1557 1557 1557 1558 1558 1559 1560 1561 1561 1562 1563 1563 1564 1565 1566 1566 1567 1568 1568 1568 1569 1569 1569 1569 1570 1570 1569 1570
1512 1514 1515 1517 1518 1520 1520 1521 1523 1524 1526 1528 1528 1530 1532 1534 1536 1537 1539 1540 1541 1542 1543 1544 1545 1545 1546 1546 1546 1546 1546 1546 1546 1547 1547 1547 1548 1548 1548 1548 1548 1548 1549 1549 1549 1549 1549 1549 1550 1550 1550 1551 1552 1552 1553 1554 1555 1555 1556 1556 1557 1557 1558 1559 1559 1560 1561 1562 1563 1563 1564 1565 1566 1566 1567 1567 1567 1568 1568 1568 1569 1569 1569 1569 1569
1512 1514 1515 1516 1517 1518 1518 1520 1522 1525 1528 1529 1528 1529 1532 1534 1536 1537 1539 1540 1541 1542 1543 1544 1545 1545 1545 1545 1546 1546 1546 1546 1546 1547 1547 1547 1548 1548 1548 1548 1548 1548 1548 1548 1548 1548 1548 1549 1549 1549 1550 1550 1551 1551 1551 1553 1554 1554 1555 1555 1556 1556 1557 1557 1558 1559 1560 1561 1562 1563 1563 1564 1565 1565 1566 1566 1567 1567 1567 1567 1568 1568 1569 1569 1569
1512 1514 1515 1515 1516 1517 1518 1521 1523 1527 1530 1530 1529 1530 1533 1535 1536 1538 1539 1541 1542 1542 1543 1544 1545 1545 1546 1546 1546 1546 1546 1546 1546 1547 1547 1547 1547 1547 1547 1547 1547 1547 1547 1548 1548 1548 1548 1548 1548 1548 1549 1549 1550 1550 1550 1551 1552 1553 1554 1555 1555 1555 1556 1557 1557 1558 1559 1560 1561 1562 1563 1563 1563 1564 1566 1566 1566 1566 1566 1566 1567 1567 1568 1569 1569
1511 1513 1514 1515 1515 1516 1520 1522 1524 1527 1530 1530 1530 1532 1533 1535 1537 1538 1540 1541 1542 1543 1544 1544 1545 1546 1546 1546 1546 1546 1546 1546 1546 1546 1546 1546 1546 1546 1546 1547 1547 1547 1547 1547 1547 1547 1547 1547 1548 1548 1548 1548 1549 1550 1550 1550 1551 1552 1553 1554 1554 1555 1555 1556 1557 1557 1558 1559 1560 1561 1562 1562 1563 1564 1565 1565 1565 1565 1565 1565 1566 1566 1567 1567 1568
1510 1511 1513 1514 1515 1517 1521 1523 1524 1526 1529 1530 1531 1532 1534 1536 1537 1539 1540 1542 1543 1543 1544 1545 1545 1546 1546 1547 1547 1547 1547 1546 1546 1546 1546 1546 1546 1546 1546 1546 1546 1547 1547 1547 1547 1547 1547 1547 1548 1548 1548 1549 1549 1549 1550 1549 1550 1551 1553 1554 1554 1554 1555 1555 1556 1557 1558 1559 1559 1560 1561 1561 1562 1563 1563 1563 1564 1564 1564 1564 1565 1565 1566 1566 1566
1507 1509 1511 1513 1514 1517 1521 1523 1524 1526 1528 1529 1530 1532 1534 1536 1537 1539 1541 1542 1543 1543 1544 1545 1546 1546 1547 1547 1547 1547 1547 1547 1547 1546 1546 1546 1546 1546 1546 1546 1546 1546 1547 1547 1547 1547 1547 1547 1547 1548 1548 1548 1549 1549 1549 1549 1549 1550 1552 1553 1554 1554 1555 1555 1555 1556 1557 1558 1559 1559 1560 1561 1561 1562 1562 1563 1563 1563 1563 1564 1564 1564 1565 1565 1565
1505 1507 1510 1512 1513 1517 1521 1522 1523 1525 1527 1529 1530 1532 1534 1536 1538 1539 1541 1542 1543 1543 1544 1545 1546 1546 1547 1548 1548 1548 1548 1548 1547 1547 1547 1546 1546 1546 1546 1546 1546 1547 1547 1547 1547 1547 1547 1547 1547 1548 1548 1548 1549 1549 1549 1549 1549 1550 1551 1552 1553 1554 1554 1555 1555 1556 1557 1558 1558 1559 1559 1560 1560 1561 1562 1562 1562 1563 1563 1563 1563 1563 1564 1564 1564
1504 1506 1508 1511 1513 1517 1519 1521 1523 1525 1527 1528 1530 1532 1534 1536 1538 1539 1541 1542 1542 1543 1544 1545 1546 1546 1547 1548 1548 1548 1548 1548 1548 1548 1547 1547 1547 1547 1547 1547 1547 1547 1547 1547 1548 1548 1548 1548 1548 1548 1548 1549 1549 1549 1549 1549 1550 1551 1551 1552 1553 1554 1554 1554 1555 1556 1557 1558 1558 1559 1559 1560 1560 1561 1561 1561 1562 1562 1562 1562 1563 1563 1563 1563 1563
1504 1507 1509 1511 1514 1516 1518 1520 1522 1525 1527 1528 1530 1532 1534 1535 1537 1538 1540 1541 1542 1543 1544 1545 1546 1546 1547 1547 1548 1548 1548 1548 1548 1548 1548 1548 1548 1548 1548 1548 1548 1548 1548 1548 1548 1548 1549 1549 1548 1549 1549 1549 1549 1549 1549 1550 1551 1552 1552 1553 1553 1554 1554 1554 1554 1555 1556 1557 1559 1559 1560 1560 1560 1560 1561 1561 1562 1562 1562 1562 1562 1562 1562 1562 1562
1506 1508 1510 1512 1514 1516 1518 1520 1522 1524 1526 1528 1529 1531 1533 1534 1536 1537 1539 1540 1542 1543 1544 1545 1546 1546 1546 1547 1547 1548 1548 1548 1549 1549 1549 1549 1549 1549 1548 1548 1548 1548 1548 1548 1548 1548 1549 1549 1549 1549 1549 1549 1550 1550 1550 1550 1551 1552 1553 1553 1554 1554 1554 1554 1554 1555 1556 1557 1558 1559 1560 1560 1560 1560 1561 1561 1562 1562 1562 1562 1562 1562 1562 1562 1561
1509 1511 1512 1513 1515 1517 1518 1520 1522 1523 1525 1526 1529 1530 1532 1534 1535 1537 1538 1540 1541 1543 1544 1545 1545 1546 1546 1546 1547 1547 1548 1548 1549 1549 1549 1549 1549 1549 1549 1549 1549 1549 1548 1548 1548 1548 1549 1549 1549 1549 1549 1549 1550 1550 1551 1551 1552 1552 1553 1554 1554 1554 1554 1554 1554 1555 1556 1557 1558 1559 1559 1560 1560 1560 1561 1561 1562 1561 1562 1562 1562 1562 1562 1562 1561
1511 1513 1515 1516 1517 1517 1518 1519 1521 1522 1524 1526 1528 1529 1531 1533 1535 1537 1538 1540 1541 1543 1544 1545 1545 1546 1546 1547 1547 1547 1548 1548 1549 1549 1550 1550 1550 1550 1550 1550 1550 1550 1549 1549 1549 1549 1549 1549 1549 1549 1549 1550 1550 1551 1551 1552 1552 1553 1553 1554 1554 1555 1555 1555 1555 1556 1556 1557 1558 1559 1560 1560 1560 1560 1561 1562 1562 1562 1562 1562 1562 1562 1562 1562 1561